❰ Current Conditions

NWS Regional Weather Roundup - New England Area
REGIONAL WEATHER ROUNDUP
NATIONAL WEATHER SERVICE BOSTON/NORTON MA
300 PM EDT THU OCT 06 2022

NOTE:  "FAIR" INDICATES FEW OR NO CLOUDS BELOW 12,000 FEET WITH NO 
SIGNIFICANT WEATHER AND/OR OBSTRUCTIONS TO VISIBILITY.

MAZALL-062000-
EASTERN MASSACHUSETTS
  
CITY           SKY/WX    TMP DP  RH WIND       PRES   REMARKS
BOSTON         MOSUNNY   67  56  67 SE8       29.91                   
BEVERLY        SUNNY     74  57  55 VRB5      29.89                   
LAWRENCE       SUNNY     73  54  51 CALM      29.92                   
BEDFORD        SUNNY     73  54  51 VRB3      29.90                   
NORWOOD        SUNNY     76  55  48 VRB6      29.91                   
MARSHFIELD     SUNNY     68  54  60 VRB6      29.91F                  
PLYMOUTH       SUNNY     69  56  62 E7        29.91                   
TAUNTON          N/A    N/A N/A N/A MISG      29.90                   
NEW BEDFORD    SUNNY     73  53  49 N5        29.90                   
$$

MAZALL-062000-
CAPE COD AND THE ISLANDS
  
CITY           SKY/WX    TMP DP  RH WIND       PRES   REMARKS
FALMOUTH       SUNNY     68  55  64 N9        29.91S                  
HYANNIS        MOSUNNY   64  57  78 N10       29.89F                  
CHATHAM        PTSUNNY   65  59  81 N5        29.91                   
PROVINCETOWN   SUNNY     63  58  83 N8        29.92F                  
NANTUCKET      CLOUDY    64  61  90 N10       29.90                   
MARTHAS VNYRD  MOSUNNY   70  59  68 N7        29.90F                  
$$
 
MAZALL-062000-
CENTRAL AND WESTERN MASSACHUSETTS
  
CITY           SKY/WX    TMP DP  RH WIND       PRES   REMARKS
WORCESTER      SUNNY     71  50  47 VRB3      29.94                   
FITCHBURG      SUNNY     76  44  32 CALM      29.92                   
ORANGE         SUNNY     74  49  41 VRB3      29.93                   
SPRINGFIELD    MOSUNNY   73  49  42 NW3       29.90F                  
WESTFIELD      SUNNY     73  49  42 CALM      29.92                   
NORTH ADAMS    SUNNY     72  52  49 VRB5      29.93                   
PITTSFIELD     SUNNY     71  52  50 SW7       29.94                   
$$
 
RIZALL-062000-
RHODE ISLAND
  
CITY           SKY/WX    TMP DP  RH WIND       PRES   REMARKS
PROVIDENCE     MOSUNNY   74  53  48 N3        29.91                   
NEWPORT        SUNNY     71  57  61 VRB5      29.91F                  
BLOCK ISLAND   PTSUNNY   68  59  73 W7        29.93F                  
SMITHFIELD     SUNNY     72  53  51 VRB6      29.92                   
WESTERLY       MOSUNNY   69  60  73 SW6       29.91                   
$$
 
CTZALL-062000-
CONNECTICUT
  
CITY           SKY/WX    TMP DP  RH WIND       PRES   REMARKS
BRADLEY INTL   MOSUNNY   75  47  36 NW5       29.93                   
HARTFORD       MOSUNNY   75  45  34 N6        29.92                   
BRIDGEPORT     SUNNY     68  55  63 SW9       29.93                   
DANBURY        SUNNY     74  51  44 VRB5      29.95                   
GROTON         MOSUNNY   70  61  73 SW14      29.91F                  
NEW HAVEN      SUNNY     70  58  65 W9        29.93                   
CHESTER        FAIR      75  50  41 VRB5      29.93F                  
MERIDEN        SUNNY     74  47  38 NW7       29.93                   
WILLIMANTIC    SUNNY     73  56  54 CALM      29.92                   
OXFORD         SUNNY     72  50  45 NW6       29.95                   
$$

MEZ002-015-021-024-NHZ003-005-008-011-012-014-VTZ005-008-062000-
NORTHERN NEW ENGLAND
  
CITY           SKY/WX    TMP DP  RH WIND       PRES   REMARKS
PORTLAND ME    SUNNY     74  49  41 W5        29.89                   
BANGOR ME      MOSUNNY   73  50  44 VRB3      29.87                   
CONCORD NH     SUNNY     74  46  36 SE8       29.91                   
MANCHESTER NH  MOSUNNY   74  48  39 SW5       29.90                   
NASHUA NH      SUNNY     73  48  41 VRB3      29.92                   
PORTSMOUTH NH  MOSUNNY   73  53  48 W5        29.89F                  
JAFFREY NH     SUNNY     74  46  36 S6        29.93                   
KEENE NH       SUNNY     74  53  48 SW5         N/A                   
BURLINGTON VT  MOSUNNY   75  48  38 SW7       29.90                   
MT. WASHINGTON MOSUNNY   52  41  66 W18         N/A                   
$$

NYZ052-076-062000-
EASTERN NEW YORK
  
CITY           SKY/WX    TMP DP  RH WIND       PRES   REMARKS
ALBANY         MOSUNNY   74  52  46 E3        29.93                   
NEW YORK CITY  MOSUNNY   74  42  31 NW3       29.94                   
$$
 
ANZALL-062000-
MARINE OBSERVATIONS
  
STATION/POSITION TIME  TEMP    WIND        PRES    VSBY  WAVE
                       AIR SEA DIR/SP/G                  HT/PER
                 (UTC) (F)     (DEG/KT/KT) (MB)    (MI)  (FT/S)
BOSTON BUOY      1850      60   50/  4/  4 1013.4F         4/ 9
BUZZARDS BAY     1800   63     160/  1/  2 1013.6F
NANTUCKET SOUND  1850   62 60  350/  6/  8 1012.7F         1/ 5
MASS BAY-STELLWA 1704   59 58  350/  8/  8 1013.0F  1 7/8  4/ 6
ISLE OF SHOALS   1800   62     130/  4/  4 1012.3F
S OF BLOCK IS    1756      62                N/A           3/10
$$

......................KEY.........................
  SKY/WX - SKY CONDITION/PRESENT WEATHER
  TMP    - TEMPERATURE IN FAHRENHEIT
  DWPT   - DEWPOINT IN FAHRENHEIT
  RH     - RELATIVE HUMIDITY IN PERCENT
  WIND   - DIRECTION AND SPEED IN MPH
  PRES   - MEAN SEA LEVEL PRESSURE IN INCHES OF HG
  WCI    - WIND CHILL INDEX
  VSB    - VISIBILITY IN MILES
  HX     - HEAT INDEX
  TC     - TEMPERATURE IN CELSIUS
  VRB    - VARIABLE WIND DIRECTION
  N/A    - NOT AVAILABLE